• In Belarus
  • List of Countries
  • For 7 days
  • Water Temperature
  • Satellite Maps
  • Weather Map
  • Weather Widgets
  • user-avatar
    Login

    Hourly Weather Laszkar Gah

    Today, 20 February, Tuesday

    Time Temperature Precipitation Wind Pressure Humidity
    00:00 +22°C° 0.1 mm 4 mps 690 mmHg 24%
    01:00 +21°C° 0.1 mm 4 mps 690 mmHg 26%
    02:00 +20°C° 0.3 mm 3 mps 690 mmHg 29%
    03:00 +20°C° 0.3 mm 3 mps 690 mmHg 31%
    04:00 +19°C° 0 mm 3 mps 690 mmHg 35%
    05:00 +19°C° 0 mm 3 mps 690 mmHg 35%
    06:00 +19°C° 0 mm 4 mps 690 mmHg 35%
    07:00 +19°C° 0 mm 4 mps 691 mmHg 35%
    08:00 +21°C° 0 mm 5 mps 691 mmHg 31%
    09:00 +23°C° 0 mm 6 mps 692 mmHg 26%
    10:00 +26°C° 0 mm 6 mps 692 mmHg 21%
    11:00 +26°C° 0 mm 6 mps 692 mmHg 19%
    12:00 +27°C° 0 mm 6 mps 692 mmHg 17%
    13:00 +27°C° 0 mm 6 mps 692 mmHg 15%
    14:00 +27°C° 0 mm 7 mps 692 mmHg 15%
    15:00 +27°C° 0 mm 7 mps 692 mmHg 14%
    16:00 +26°C° 0 mm 7 mps 691 mmHg 14%
    17:00 +24°C° 0 mm 6 mps 692 mmHg 15%
    18:00 +23°C° 0 mm 6 mps 692 mmHg 17%
    19:00 +21°C° 0 mm 5 mps 692 mmHg 18%
    20:00 +20°C° 0 mm 4 mps 692 mmHg 21%
    21:00 +19°C° 0 mm 4 mps 692 mmHg 23%
    22:00 +19°C° 0 mm 4 mps 693 mmHg 25%
    23:00 +18°C° 0 mm 3 mps 693 mmHg 27%

    Tomorrow, 21 February, Wednesday

    Time Temperature Precipitation Wind Pressure Humidity
    00:00 +17°C° 0 mm 3 mps 693 mmHg 29%
    01:00 +16°C° 0 mm 2 mps 693 mmHg 31%
    02:00 +16°C° 0 mm 2 mps 693 mmHg 32%
    03:00 +16°C° 0 mm 2 mps 693 mmHg 32%
    04:00 +15°C° 0 mm 2 mps 693 mmHg 32%
    05:00 +15°C° 0 mm 2 mps 693 mmHg 32%
    06:00 +15°C° 0 mm 2 mps 694 mmHg 31%
    07:00 +15°C° 0 mm 2 mps 694 mmHg 31%
    08:00 +17°C° 0 mm 2 mps 695 mmHg 27%
    09:00 +18°C° 0 mm 2 mps 695 mmHg 22%
    10:00 +20°C° 0 mm 2 mps 696 mmHg 17%
    11:00 +21°C° 0 mm 3 mps 696 mmHg 16%
    12:00 +22°C° 0 mm 3 mps 695 mmHg 15%
    13:00 +23°C° 0 mm 4 mps 695 mmHg 14%
    14:00 +23°C° 0 mm 4 mps 695 mmHg 13%
    15:00 +23°C° 0 mm 4 mps 694 mmHg 13%
    16:00 +25°C° 0 mm 4 mps 694 mmHg 13%
    17:00 +22°C° 0 mm 3 mps 694 mmHg 15%
    18:00 +21°C° 0 mm 3 mps 694 mmHg 16%
    19:00 +20°C° 0 mm 2 mps 694 mmHg 18%
    20:00 +20°C° 0 mm 2 mps 694 mmHg 19%
    21:00 +19°C° 0 mm 2 mps 694 mmHg 20%
    22:00 +19°C° 0 mm 2 mps 694 mmHg 21%
    23:00 +18°C° 0 mm 2 mps 693 mmHg 21%

    Day after tomorrow, 22 February, Thursday

    Time Temperature Precipitation Wind Pressure Humidity
    00:00 +17°C° 0 mm 2 mps 693 mmHg 22%
    01:00 +17°C° 0 mm 2 mps 693 mmHg 22%
    02:00 +17°C° 0 mm 2 mps 693 mmHg 22%
    03:00 +16°C° 0 mm 2 mps 692 mmHg 23%
    04:00 +16°C° 0 mm 2 mps 692 mmHg 23%
    05:00 +16°C° 0 mm 2 mps 692 mmHg 23%
    06:00 +16°C° 0 mm 2 mps 693 mmHg 23%
    07:00 +16°C° 0 mm 2 mps 693 mmHg 23%
    08:00 +18°C° 0 mm 2 mps 693 mmHg 20%
    09:00 +20°C° 0 mm 3 mps 694 mmHg 18%
    10:00 +22°C° 0 mm 3 mps 694 mmHg 15%
    11:00 +23°C° 0 mm 2 mps 694 mmHg 15%
    12:00 +24°C° 0 mm 2 mps 693 mmHg 14%
    13:00 +25°C° 0 mm 1 mps 693 mmHg 14%
    14:00 +25°C° 0 mm 1 mps 692 mmHg 14%
    15:00 +25°C° 0 mm 1 mps 692 mmHg 14%
    16:00 +25°C° 0 mm 1 mps 692 mmHg 14%
    17:00 +25°C° 0 mm 2 mps 692 mmHg 15%
    18:00 +24°C° 0 mm 2 mps 692 mmHg 16%
    19:00 +22°C° 0 mm 3 mps 692 mmHg 17%
    20:00 +22°C° 0 mm 3 mps 692 mmHg 18%
    21:00 +21°C° 0 mm 4 mps 692 mmHg 19%
    22:00 +21°C° 0 mm 4 mps 692 mmHg 19%
    23:00 +21°C° 0 mm 4 mps 692 mmHg 20%

    23 February, Friday

    Time Temperature Precipitation Wind Pressure Humidity
    00:00 +20°C° 0 mm 4 mps 692 mmHg 21%
    01:00 +20°C° 0 mm 4 mps 692 mmHg 22%
    02:00 +19°C° 0 mm 5 mps 691 mmHg 23%
    03:00 +19°C° 0 mm 5 mps 691 mmHg 24%
    04:00 +17°C° 0 mm 5 mps 690 mmHg 25%
    05:00 +17°C° 0 mm 5 mps 691 mmHg 26%
    06:00 +17°C° 0 mm 5 mps 691 mmHg 27%
    07:00 +17°C° 0 mm 5 mps 691 mmHg 29%
    08:00 +19°C° 0 mm 6 mps 691 mmHg 27%
    09:00 +20°C° 0 mm 6 mps 692 mmHg 26%
    10:00 +21°C° 0 mm 7 mps 692 mmHg 25%
    11:00 +22°C° 0 mm 6 mps 692 mmHg 27%
    12:00 +22°C° 0 mm 6 mps 691 mmHg 29%
    13:00 +22°C° 0 mm 5 mps 691 mmHg 32%
    14:00 +22°C° 0 mm 6 mps 690 mmHg 34%
    15:00 +22°C° 0 mm 6 mps 690 mmHg 36%
    16:00 +22°C° 0 mm 7 mps 689 mmHg 38%
    17:00 +21°C° 0.7 mm 7 mps 690 mmHg 43%
    18:00 +18°C° 0.7 mm 8 mps 690 mmHg 49%
    19:00 +17°C° 0.7 mm 8 mps 690 mmHg 54%
    20:00 +17°C° 0.4 mm 8 mps 690 mmHg 55%
    21:00 +16°C° 0.4 mm 7 mps 690 mmHg 56%
    22:00 +16°C° 0.4 mm 7 mps 690 mmHg 57%
    23:00 +16°C° 0.5 mm 6 mps 690 mmHg 59%

    24 February, Saturday

    Time Temperature Precipitation Wind Pressure Humidity
    00:00 +15°C° 0.5 mm 6 mps 690 mmHg 61%
    01:00 +15°C° 0.5 mm 6 mps 690 mmHg 63%
    02:00 +14°C° 0.4 mm 5 mps 690 mmHg 65%
    03:00 +14°C° 0.4 mm 5 mps 689 mmHg 68%
    04:00 +13°C° 0.4 mm 5 mps 689 mmHg 70%
    05:00 +13°C° 0.2 mm 5 mps 690 mmHg 70%
    06:00 +13°C° 0.2 mm 5 mps 691 mmHg 69%
    07:00 +13°C° 0.2 mm 5 mps 691 mmHg 69%
    08:00 +15°C° 0 mm 5 mps 692 mmHg 62%
    09:00 +18°C° 0 mm 4 mps 692 mmHg 55%
    10:00 +20°C° 0 mm 4 mps 693 mmHg 48%
    11:00 +21°C° 0 mm 4 mps 693 mmHg 42%
    12:00 +22°C° 0 mm 3 mps 692 mmHg 37%
    13:00 +24°C° 0 mm 3 mps 692 mmHg 31%
    14:00 +24°C° 0.1 mm 2 mps 692 mmHg 31%
    15:00 +24°C° 0.1 mm 2 mps 692 mmHg 30%
    16:00 +24°C° 0.1 mm 2 mps 691 mmHg 30%
    17:00 +21°C° 0.3 mm 2 mps 692 mmHg 36%
    18:00 +20°C° 0.3 mm 3 mps 692 mmHg 43%
    19:00 +19°C° 0.3 mm 3 mps 692 mmHg 49%
    20:00 +19°C° 0 mm 3 mps 692 mmHg 53%
    21:00 +18°C° 0 mm 4 mps 693 mmHg 56%
    22:00 +17°C° 0 mm 4 mps 693 mmHg 60%
    23:00 +17°C° 0 mm 4 mps 693 mmHg 61%

    25 February, Sunday

    Time Temperature Precipitation Wind Pressure Humidity
    00:00 +17°C° 0 mm 4 mps 693 mmHg 63%
    01:00 +15°C° 0 mm 4 mps 693 mmHg 65%
    02:00 +15°C° 0 mm 4 mps 693 mmHg 66%
    03:00 +15°C° 0 mm 4 mps 693 mmHg 66%
    04:00 +14°C° 0 mm 5 mps 693 mmHg 66%
    05:00 +14°C° 0 mm 5 mps 693 mmHg 65%
    06:00 +15°C° 0 mm 5 mps 694 mmHg 63%
    07:00 +15°C° 0 mm 5 mps 694 mmHg 61%
    08:00 +16°C° 0 mm 5 mps 695 mmHg 54%
    09:00 +19°C° 0 mm 5 mps 695 mmHg 47%
    10:00 +21°C° 0 mm 6 mps 696 mmHg 40%
    11:00 +22°C° 0 mm 5 mps 695 mmHg 37%
    12:00 +23°C° 0 mm 5 mps 695 mmHg 33%
    13:00 +26°C° 0 mm 4 mps 694 mmHg 30%
    14:00 +25°C° 0 mm 5 mps 694 mmHg 31%
    15:00 +23°C° 0 mm 6 mps 694 mmHg 33%
    16:00 +23°C° 0 mm 7 mps 693 mmHg 35%
    17:00 +22°C° 0.1 mm 7 mps 693 mmHg 38%
    18:00 +21°C° 0.1 mm 6 mps 694 mmHg 41%
    19:00 +20°C° 0.1 mm 6 mps 694 mmHg 44%
    20:00 +19°C° 0.3 mm 6 mps 694 mmHg 47%
    21:00 +19°C° 0.3 mm 6 mps 694 mmHg 51%
    22:00 +19°C° 0.3 mm 5 mps 694 mmHg 55%
    23:00 +19°C° 0.6 mm 5 mps 693 mmHg 58%
    Show more